Total_Precipitation_Accumulation
1.26 1.61 2.29 2.18 1.86 1.74 1.79 1.74 1.62 1.48 1.38 1.38 1.36 1.28 1.19 1.06 0.96 0.91 0.85 0.84 0.79 0.79 0.80 0.87 0.90 0.86 0.94 1.05 1.16 1.24 1.27 1.37 1.51 1.76 1.90 1.91 1.99 2.07 2.21 2.26 2.18 1.68 1.62
1.03 1.40 2.03 1.99 1.64 1.58 1.60 1.61 1.54 1.43 1.38 1.32 1.35 1.32 1.25 1.19 1.03 0.92 0.85 0.79 0.78 0.78 0.75 0.77 0.84 0.80 0.86 0.97 1.08 1.13 1.22 1.42 1.86 2.23 2.43 2.26 2.25 2.27 2.29 2.22 2.18 1.73 1.56
0.92 1.14 1.51 1.75 1.56 1.49 1.40 1.45 1.46 1.38 1.28 1.19 1.20 1.22 1.18 1.11 0.99 0.86 0.79 0.79 0.82 0.78 0.71 0.79 0.83 0.78 0.86 0.97 1.02 1.05 1.25 1.57 2.21 2.87 3.01 2.46 2.04 2.25 2.28 2.21 1.96 1.55 1.38
0.82 1.10 1.20 1.52 1.49 1.43 1.35 1.34 1.30 1.23 1.09 1.07 1.05 1.05 1.01 1.01 0.92 0.77 0.74 0.75 0.76 0.71 0.73 0.83 0.85 0.83 0.83 0.88 0.98 1.18 1.44 1.69 2.26 2.80 2.80 2.05 1.62 1.72 1.93 1.74 1.55 1.34 1.17
0.78 1.01 1.27 1.42 1.31 1.27 1.18 1.14 1.13 1.11 1.06 1.02 0.99 1.00 0.94 0.89 0.85 0.77 0.74 0.74 0.76 0.75 0.74 0.80 0.90 0.91 0.88 0.88 1.00 1.27 1.61 1.94 2.29 2.46 2.02 2.21 2.09 1.73 1.61 1.46 1.41 1.17 0.97
0.64 0.73 1.03 1.20 1.12 1.17 1.10 1.01 1.02 1.06 1.07 1.02 0.98 0.94 0.94 0.92 0.91 0.80 0.72 0.73 0.79 0.82 0.81 0.86 0.98 0.99 0.89 0.88 1.02 1.34 1.66 2.06 2.14 1.58 1.24 1.62 1.63 1.55 1.49 1.45 1.32 1.14 1.00
0.57 0.62 0.82 1.10 1.04 1.04 1.02 0.96 0.92 0.95 1.01 0.97 0.91 0.83 0.88 0.93 0.88 0.80 0.77 0.77 0.76 0.80 0.83 0.90 0.97 0.98 0.97 1.00 1.08 1.36 1.74 2.03 1.83 1.26 1.05 1.34 1.28 1.30 1.44 1.46 1.39 1.22 1.03
0.61 0.58 0.75 1.05 1.07 1.02 0.99 0.93 0.91 0.88 0.87 0.86 0.83 0.79 0.81 0.86 0.85 0.84 0.84 0.87 0.80 0.82 0.89 0.91 0.91 0.89 0.95 1.08 1.21 1.34 1.72 1.70 1.33 1.13 1.04 1.13 0.92 1.19 1.39 1.33 1.26 1.15 1.02
0.91 0.84 0.82 0.92 0.98 0.98 1.06 1.05 0.96 0.92 0.86 0.85 0.86 0.84 0.80 0.79 0.80 0.81 0.92 0.94 0.86 0.88 0.92 0.95 0.93 0.95 1.02 1.13 1.24 1.39 1.71 1.81 1.50 1.37 1.11 1.07 0.87 1.22 1.47 1.29 1.13 1.04 1.05
1.54 1.39 1.13 1.00 1.09 0.98 1.01 1.07 1.04 0.88 0.84 0.87 0.92 0.88 0.89 0.95 0.97 1.05 1.01 0.97 1.00 1.06 1.10 1.16 1.12 1.08 1.20 1.30 1.40 1.54 1.75 1.67 1.48 1.65 1.45 1.09 1.00 1.34 1.57 1.60 1.42 1.21 1.12
1.91 1.75 1.60 1.43 1.20 1.15 1.09 0.99 1.13 1.04 0.99 1.12 1.30 1.26 1.34 1.67 1.59 1.66 1.32 1.22 1.33 1.51 1.56 1.63 1.61 1.54 1.48 1.44 1.63 1.84 1.70 1.59 1.84 2.00 1.67 1.20 1.28 1.72 1.88 1.96 1.81 1.63 1.49
1.87 1.69 1.73 1.76 1.44 1.28 1.23 1.44 1.79 1.58 1.58 1.66 1.91 1.81 2.12 2.23 2.10 1.54 1.56 1.74 1.85 2.19 2.32 2.38 2.42 2.16 1.87 1.75 1.94 1.95 1.70 1.78 2.07 1.79 1.48 1.30 1.47 1.89 2.18 2.24 2.06 1.83 1.76
2.00 1.90 1.70 1.97 1.73 1.63 1.80 1.88 2.02 2.11 2.09 2.08 2.17 2.18 2.43 2.22 1.90 1.80 2.14 2.51 2.68 2.83 3.02 3.06 2.96 2.48 2.41 2.60 2.58 2.35 2.22 2.08 2.12 1.83 1.47 1.50 1.68 2.04 2.34 2.42 2.23 2.05 1.91
2.21 2.14 2.06 2.15 2.10 2.09 2.11 2.05 1.90 1.73 1.76 1.93 2.12 2.11 2.32 2.42 2.42 2.40 2.59 2.71 2.94 3.32 3.70 3.62 3.56 3.27 3.21 3.01 2.77 2.76 2.55 2.21 2.37 2.46 1.99 1.79 1.91 2.28 2.50 2.52 2.38 2.24 2.23
2.87 2.74 2.74 2.85 2.67 2.48 2.42 2.10 1.69 1.60 1.54 1.62 1.77 1.90 1.93 2.26 2.55 2.59 2.45 2.49 2.45 2.67 3.12 3.67 3.60 3.77 3.70 3.32 2.82 2.65 2.67 2.51 2.47 2.42 2.06 2.13 2.35 2.39 2.45 2.47 2.44 2.40 2.42
3.84 3.67 3.47 3.54 3.12 2.80 2.57 2.20 1.91 1.64 1.68 1.65 1.59 1.61 1.84 2.10 2.37 2.34 2.30 2.50 2.54 2.47 2.63 3.08 3.25 3.63 3.60 3.22 2.68 2.44 2.39 2.44 2.33 2.32 2.08 2.12 2.25 2.11 2.15 2.45 2.70 2.80 2.71
4.95 4.57 3.98 3.71 3.40 3.13 2.88 2.42 2.03 1.82 1.59 1.69 1.74 1.67 1.75 1.86 2.05 2.04 2.14 2.16 2.23 2.14 2.21 2.42 2.65 2.91 2.88 2.74 2.64 2.52 2.40 2.31 2.14 2.16 2.21 2.14 1.89 1.97 2.10 2.26 2.50 2.66 2.83
5.76 5.18 4.45 3.75 3.76 3.62 3.33 2.68 2.18 1.91 1.80 1.74 1.70 1.58 1.50 1.56 1.55 1.66 1.71 1.68 1.71 1.58 1.69 2.02 2.10 2.33 2.57 2.65 2.74 2.51 2.35 2.39 2.19 2.16 2.13 2.14 2.16 1.89 2.15 2.23 2.29 2.33 2.66
5.91 5.72 5.10 4.91 4.67 3.99 3.27 2.67 2.26 1.97 1.87 1.73 1.66 1.57 1.48 1.39 1.37 1.49 1.63 1.68 1.42 1.42 1.48 1.36 1.75 1.97 2.22 2.34 2.05 2.17 1.99 2.02 1.92 1.69 1.71 1.64 1.89 1.92 2.06 2.02 2.10 2.10 2.40
4.85 4.75 4.70 4.81 4.37 3.76 3.13 2.64 2.36 2.09 1.80 1.62 1.59 1.59 1.48 1.45 1.45 1.62 1.49 1.47 1.33 1.53 1.69 1.74 2.01 1.94 1.88 1.96 1.67 1.87 1.72 1.56 1.57 1.49 1.38 1.46 1.57 1.49 1.75 1.96 2.03 1.77 2.04
3.28 3.38 3.69 3.92 3.66 3.19 2.78 2.29 2.10 2.05 1.84 1.62 1.47 1.35 1.43 1.40 1.58 1.77 1.54 1.80 1.60 1.57 1.63 1.65 1.80 1.80 1.65 1.61 1.96 2.12 1.67 1.26 1.26 1.14 1.13 1.34 1.41 1.45 1.75 2.02 2.09 2.09 1.87
2.38 2.68 3.06 3.32 3.17 2.64 2.42 2.23 2.10 2.04 1.88 1.81 1.67 1.60 1.41 1.39 1.47 1.43 1.73 1.60 1.62 1.74 1.75 1.80 1.91 1.93 1.74 1.66 1.97 2.33 2.06 1.96 1.70 0.98 1.08 1.23 1.31 1.54 1.64 1.65 1.83 2.10 1.89
2.13 2.29 2.32 2.57 2.78 2.52 2.41 2.33 2.22 2.15 1.96 1.99 1.91 1.76 1.42 1.28 1.31 1.39 1.44 1.49 1.70 1.54 1.81 2.00 1.92 2.01 2.01 1.82 1.83 2.17 2.25 2.20 1.84 1.39 1.10 1.08 1.24 1.58 1.64 1.70 1.60 1.77 1.93
1.53 1.82 2.05 2.30 2.48 2.42 2.30 2.11 1.94 1.76 1.67 1.66 1.68 1.70 1.56 1.44 1.28 1.30 1.32 1.51 1.69 1.51 1.89 1.58 1.64 1.90 2.05 1.88 1.79 1.67 1.72 1.88 2.03 1.91 1.56 1.22 1.21 1.38 1.51 1.43 1.44 1.65 1.79
1.07 1.47 1.90 2.24 2.48 2.38 2.09 1.92 1.92 1.80 1.76 1.67 1.61 1.80 1.69 1.61 1.41 1.23 1.33 1.48 1.57 1.49 1.61 1.64 1.92 1.85 1.82 1.81 1.81 1.83 1.89 1.78 1.60 1.73 1.78 1.65 1.50 1.18 1.08 1.15 1.28 1.46 1.51
0.87 1.14 1.50 1.81 2.05 2.08 1.94 1.86 1.90 1.91 1.87 1.74 1.56 1.56 1.47 1.48 1.44 1.34 1.42 1.52 1.48 1.43 1.53 1.57 1.70 1.72 1.82 1.91 1.76 1.66 1.80 1.73 1.64 1.67 1.51 1.47 1.50 1.12 0.96 0.97 1.08 1.29 1.39